STARLINK-2271 (48008 NORAD) Tracking and Keplerian Element Data

This shows tracking and keplerian element data for the satellite.

Feedback or suggestion? Click here.




ElementValue
Catalog48008
NameSTARLINK-2271
Epoch Orbit198
Epoch Day173.91668981
Epoch Year2021
RAAN114.2821
Inclination53.0446
Eccentricity0.0002151
Argument of Perigee29.253
Mean Anonmoly125.9117
Mean Motion15.73008487
Decay Rate0.0034274
L11 48008U 21024AH 21173.91668981 .00342740 00000-0 23670-2 0 9991
L22 48008 53.0446 114.2821 0002151 29.2530 125.9117 15.73008487 1980

Live tracking and technical data element details for STARLINK-2271 (NORAD 48008). STARLINK-2271 can be tracked NOW for your location showing map with azimuth and elevation plus other details from your city location.

Track the satellite on the map from your city or location and see movement details for azimuth, elevation, latitude, longitude, range, height, and movement on the map or in text.







IsCatalogInMostPopularTable: catalog: 48008, numindb: 42
Update: records affected: 1



GetName: 48008 STARLINK-2271

Hit Count: updated at: Thu, 24 Jun 2021 03:21:38 GMT